HK6LRQ-21 Weather Reports


time (UTC)temp
C
wind
direction
speed
KPH
gust
KPH
rain 1hr
cm
rain 24hr
cm
rain mn
cm
humidity
%
barometer
mb
20260507214255 17 98 0.0 0.0 0.00 0.00 0.00 72 1012.0
20260507212254 17 127 0.0 0.0 0.00 0.00 0.00 72 1010.0
20260507210253 18 127 0.0 0.0 0.00 0.00 0.00 72 1010.0
20260507204252 19 127 0.0 0.0 0.00 0.00 0.00 72 1011.0
20260507202251 17 261 1.6 1.6 0.00 0.00 0.00 72 1010.0
20260507200250 18 261 1.6 1.6 0.00 0.00 0.00 72 1010.0
20260507194249 18 261 1.6 1.6 0.00 0.00 0.00 72 1011.0
20260507192248 19 261 1.6 1.6 0.00 0.00 0.00 72 1011.0
20260507190247 20 261 3.2 3.2 0.00 0.00 0.00 72 1011.0
20260507184246 20 261 3.2 3.2 0.00 0.00 0.00 72 1012.0
20260507182245 20 262 4.8 4.8 0.00 0.00 0.00 72 1012.0
20260507180244 20 262 4.8 4.8 0.00 0.00 0.00 72 1012.0
20260507174243 20 264 6.4 6.4 0.00 0.00 0.00 72 1013.0
20260507172243 20 270 8.0 8.0 0.00 0.00 0.00 72 1014.0
20260507170242 19 270 8.0 8.0 0.00 0.00 0.00 73 1014.0
20260507164241 20 270 8.0 8.0 0.00 0.00 0.00 73 1014.0
20260507162240 18 262 8.0 8.0 0.00 0.00 0.00 83 1015.0
20260507160239 18 262 8.0 8.0 0.00 0.00 0.00 83 1015.0
20260507154238 19 262 8.0 8.0 0.00 0.00 0.00 73 1015.0
20260507152237 17 262 6.4 8.0 0.00 0.00 0.00 83 1016.0
20260507150236 17 262 6.4 8.0 0.00 0.00 0.00 83 1016.0
20260507144235 18 262 6.4 8.0 0.00 0.00 0.00 71 1016.0
20260507142234 15 253 4.8 6.4 0.00 0.00 0.00 77 1017.0
20260507140233 15 253 4.8 6.4 0.00 0.00 0.00 76 1017.0
20260507134232 14 253 4.8 6.4 0.00 0.00 0.00 72 1017.0
20260507132231 14 226 1.6 4.8 0.00 0.00 0.00 75 1017.0
20260507130230 15 226 1.6 4.8 0.00 0.00 0.00 75 1017.0
20260507124229 16 226 1.6 4.8 0.00 0.00 0.00 75 1017.0
20260507122228 11 95 4.8 6.4 0.00 0.00 0.00 80 1017.0
20260507120227 11 95 4.8 6.4 0.00 0.00 0.00 80 1017.0
20260507114226 10 92 8.0 6.4 0.00 0.00 0.00 80 1017.0
20260507112225 11 92 8.0 6.4 0.00 0.00 0.00 80 1016.0
20260507110224 10 93 8.0 6.4 0.00 0.00 0.00 80 1016.0
20260507104223 10 93 8.0 6.4 0.00 0.00 0.00 80 1017.0
20260507102222 11 93 8.0 6.4 0.00 0.00 0.00 80 1016.0
20260507100222 10 93 8.0 6.4 0.00 0.00 0.00 80 1016.0
20260507094221 11 93 8.0 6.4 0.00 0.00 0.00 80 1017.0
20260507092220 10 93 8.0 6.4 0.00 0.00 0.00 80 1016.0
20260507090219 10 93 8.0 6.4 0.00 0.00 0.00 80 1016.0
20260507084218 11 93 8.0 6.4 0.00 0.00 0.00 80 1017.0
20260507082217 10 91 8.0 8.0 0.00 0.00 0.00 80 1016.0
20260507080216 10 91 8.0 8.0 0.00 0.00 0.00 80 1016.0
20260507074215 11 91 8.0 8.0 0.00 0.00 0.00 80 1017.0
20260507072214 11 91 9.7 8.0 0.00 0.00 0.00 80 1016.0
20260507070213 10 93 11.3 8.0 0.00 0.00 0.00 80 1016.0
20260507064212 11 93 11.3 8.0 0.00 0.00 0.00 80 1017.0
20260507062211 11 93 11.3 8.0 0.00 0.00 0.00 80 1017.0
20260507060210 10 93 8.0 6.4 0.00 0.00 0.00 80 1018.0
20260507054209 11 93 9.7 6.4 0.00 0.00 0.00 80 1018.0
20260507052208 10 92 11.3 8.0 0.00 0.00 0.00 80 1017.0
20260507050207 11 92 11.3 8.0 0.00 0.00 0.00 80 1017.0
20260507044206 12 92 11.3 8.0 0.00 0.00 0.00 80 1018.0
20260507042205 11 93 11.3 8.0 0.00 0.00 0.00 80 1017.0
20260507040204 12 93 11.3 8.0 0.00 0.00 0.00 80 1017.0
20260507034203 11 95 11.3 8.0 0.00 0.00 0.00 80 1018.0
20260507032202 12 95 11.3 8.0 0.00 0.00 0.00 80 1017.0
20260507030201 11 97 11.3 8.0 0.00 0.00 0.00 80 1017.0
20260507024200 11 97 11.3 8.0 0.00 0.00 0.00 80 1018.0
20260507022159 12 97 11.3 8.0 0.00 0.00 0.00 80 1016.0
20260507020158 11 98 8.0 8.0 0.00 0.00 0.00 80 1016.0
20260507014157 12 98 8.0 8.0 0.00 0.00 0.00 80 1017.0
20260507012156 13 98 9.7 8.0 0.00 0.00 0.00 80 1015.0
20260507010155 12 98 8.0 8.0 0.00 0.00 0.00 80 1015.0
20260507004153 13 98 9.7 8.0 0.00 0.00 0.00 80 1016.0
20260507002152 13 105 4.8 6.4 0.00 0.00 0.00 80 1014.0
20260507000151 14 105 4.8 6.4 0.00 0.00 0.00 80 1014.0
20260506234150 15 105 4.8 6.4 0.00 0.00 0.00 80 1014.0
20260506232149 16 105 4.8 6.4 0.00 0.00 0.00 80 1012.0
20260506230148 17 105 4.8 6.4 0.00 0.00 0.00 80 1012.0
20260506224147 16 187 1.6 4.8 0.00 0.00 0.00 80 1013.0
20260506222146 16 187 1.6 4.8 0.00 0.00 0.00 80 1011.0
20260506220145 17 187 1.6 4.8 0.00 0.00 0.00 80 1011.0